TimeCST,TemperatureF,Dew PointF,Humidity,Sea Level PressureIn,VisibilityMPH,Wind Direction,Wind SpeedMPH,Gust SpeedMPH,PrecipitationIn,Events,Conditions,WindDirDegrees,DateUTC
12:15 AM,28.4,23.0,80,30.49,10.0,Calm,Calm,-,N/A,,Clear,0,2013-01-18 06:15:00
12:35 AM,30.2,23.0,75,30.49,10.0,Calm,Calm,-,N/A,,Clear,0,2013-01-18 06:35:00
12:55 AM,28.4,23.0,80,30.49,10.0,Calm,Calm,-,N/A,,Clear,0,2013-01-18 06:55:00
1:15 AM,28.4,23.0,80,30.49,10.0,Calm,Calm,-,N/A,,Clear,0,2013-01-18 07:15:00
1:35 AM,28.4,23.0,80,30.50,10.0,Calm,Calm,-,N/A,,Clear,0,2013-01-18 07:35:00
1:55 AM,28.4,23.0,80,30.50,10.0,Calm,Calm,-,N/A,,Clear,0,2013-01-18 07:55:00
2:15 AM,28.4,23.0,80,30.51,10.0,Calm,Calm,-,N/A,,Clear,0,2013-01-18 08:15:00
2:35 AM,28.4,23.0,80,30.51,10.0,Calm,Calm,-,N/A,,Clear,0,2013-01-18 08:35:00
2:55 AM,32.0,23.0,69,30.51,10.0,SSW,3.5,-,N/A,,Clear,200,2013-01-18 08:55:00
3:15 AM,30.2,23.0,75,30.50,10.0,South,3.5,-,N/A,,Clear,190,2013-01-18 09:15:00
3:35 AM,28.4,23.0,80,30.49,10.0,SSE,4.6,-,N/A,,Clear,160,2013-01-18 09:35:00
3:55 AM,32.0,23.0,69,30.49,10.0,South,4.6,-,N/A,,Clear,170,2013-01-18 09:55:00
4:15 AM,32.0,23.0,69,30.49,10.0,South,3.5,-,N/A,,Clear,170,2013-01-18 10:15:00
4:35 AM,30.2,23.0,75,30.48,10.0,South,3.5,-,N/A,,Clear,180,2013-01-18 10:35:00
4:55 AM,30.2,23.0,75,30.47,10.0,South,3.5,-,N/A,,Clear,180,2013-01-18 10:55:00
5:15 AM,32.0,23.0,69,30.47,10.0,South,4.6,-,N/A,,Clear,170,2013-01-18 11:15:00
5:35 AM,32.0,23.0,69,30.46,10.0,South,3.5,-,N/A,,Clear,170,2013-01-18 11:35:00
6:50 AM,32.0,23.0,69,30.46,10.0,SSE,5.8,-,N/A,,Clear,160,2013-01-18 12:50:00
7:45 AM,32.0,24.8,75,30.45,10.0,SSE,6.9,-,N/A,,Clear,150,2013-01-18 13:45:00
8:45 AM,33.8,24.8,70,30.45,10.0,SSE,8.1,-,N/A,,Clear,150,2013-01-18 14:45:00
9:45 AM,39.2,26.6,61,30.46,10.0,SSE,6.9,-,N/A,,Clear,150,2013-01-18 15:45:00
10:45 AM,44.6,26.6,49,30.44,10.0,SSE,5.8,-,N/A,,Clear,150,2013-01-18 16:45:00
11:45 AM,50.0,23.0,35,30.41,10.0,SW,8.1,-,N/A,,Clear,230,2013-01-18 17:45:00
12:45 PM,55.4,24.8,31,30.35,10.0,SW,9.2,-,N/A,,Clear,230,2013-01-18 18:45:00
1:51 PM,57.2,17.6,21,30.32,10.0,SSW,12.7,18.4,N/A,,Clear,210,2013-01-18 19:51:00
2:53 PM,57.2,15.8,20,30.30,10.0,SSW,13.8,20.7,N/A,,Clear,210,2013-01-18 20:53:00
3:45 PM,57.2,14.0,18,30.28,10.0,SW,8.1,18.4,N/A,,Clear,220,2013-01-18 21:45:00
4:45 PM,55.4,15.8,21,30.27,10.0,SSW,9.2,16.1,N/A,,Clear,200,2013-01-18 22:45:00
5:53 PM,50.0,17.6,28,30.27,10.0,South,8.1,-,N/A,,Clear,190,2013-01-18 23:53:00
6:52 PM,48.2,19.4,32,30.26,10.0,SSW,9.2,13.8,N/A,,Clear,200,2013-01-19 00:52:00
7:54 PM,44.6,23.0,43,30.25,10.0,South,9.2,-,N/A,,Clear,180,2013-01-19 01:54:00
7:55 PM,44.6,23.0,43,30.25,10.0,SSE,5.8,-,N/A,,Clear,160,2013-01-19 01:55:00
8:15 PM,41.0,24.8,53,30.24,10.0,SSE,6.9,-,N/A,,Clear,160,2013-01-19 02:15:00
8:35 PM,42.8,24.8,49,30.23,10.0,South,6.9,-,N/A,,Clear,170,2013-01-19 02:35:00
8:55 PM,42.8,24.8,49,30.23,10.0,SSE,9.2,-,N/A,,Clear,160,2013-01-19 02:55:00
9:15 PM,42.8,24.8,49,30.23,10.0,South,5.8,-,N/A,,Clear,180,2013-01-19 03:15:00
9:35 PM,42.8,24.8,49,30.22,10.0,South,4.6,-,N/A,,Clear,180,2013-01-19 03:35:00
9:55 PM,44.6,23.0,43,30.22,10.0,South,5.8,-,N/A,,Clear,190,2013-01-19 03:55:00
10:15 PM,44.6,23.0,43,30.21,10.0,SSW,6.9,-,N/A,,Clear,200,2013-01-19 04:15:00
10:35 PM,44.6,21.2,39,30.21,10.0,SSW,8.1,-,N/A,,Clear,200,2013-01-19 04:35:00
10:55 PM,44.6,21.2,39,30.21,10.0,SSW,6.9,-,N/A,,Clear,210,2013-01-19 04:55:00
11:15 PM,44.6,19.4,37,30.20,10.0,SSW,8.1,-,N/A,,Clear,200,2013-01-19 05:15:00
11:35 PM,42.8,19.4,39,30.20,10.0,SSW,5.8,-,N/A,,Clear,200,2013-01-19 05:35:00
11:55 PM,42.8,19.4,39,30.20,10.0,SSW,5.8,-,N/A,,Clear,200,2013-01-19 05:55:00